Temp_Advection
nan nan nan nan nan nan nan nan nan nan nan nan nan nan nan nan nan nan nan nan nan nan nan nan nan nan nan nan nan nan nan nan nan
nan -0 0 0 0 0 0 0 0 -0 0 0 0 -0 0 0 0 1 0 0 0 0 -1 -1 0 -0 -0 -0 -0 -0 -0 -0 nan
nan 0 0 0 0 0 0 0 0 0 -0 0 0 0 -0 -0 -0 0 1 0 -0 -1 -1 0 0 1 0 -1 -0 -0 -0 0 nan
nan 0 0 0 0 0 0 0 0 0 0 -0 -0 -0 -0 -0 -0 -0 0 1 1 -1 -1 0 0 1 0 0 -0 -1 -0 0 nan
nan -0 0 0 -0 0 0 0 0 0 0 0 0 -0 -0 -0 -0 -0 0 0 0 -0 -0 -0 0 0 1 0 -0 0 -0 -1 nan
nan -0 -0 -0 -0 -0 0 0 0 0 0 0 0 -0 -0 -0 -0 -0 -0 0 -0 -0 -1 -0 -0 0 0 1 1 0 0 0 nan
nan -0 -0 -0 -0 0 0 0 0 -0 -0 0 0 0 -0 -0 -0 -0 -0 -0 -0 -0 -0 -0 -0 -0 -0 0 0 1 1 0 nan
nan -0 -0 -0 -0 -0 -0 -0 -0 -0 -0 -0 -0 0 0 0 -0 0 0 0 -0 -0 -1 -1 -1 -0 -0 -0 -0 0 1 1 nan
nan 0 -0 -0 -0 -0 -0 -0 -0 -0 -0 -0 -0 -0 0 0 0 0 0 0 0 0 -0 -0 -0 -0 -0 -1 -1 -0 -0 0 nan
nan 0 0 0 -0 -0 -0 -0 -0 -0 -0 -0 -0 -0 -0 -0 0 0 0 0 0 0 0 0 -0 -0 -0 -0 -0 -1 -0 -0 nan
nan 0 -0 -0 -0 -0 -0 0 0 -0 -0 -0 -0 -0 -0 -0 -0 -0 -0 0 0 0 0 0 0 0 0 -0 -0 -0 0 0 nan
nan -0 -0 -0 -0 -0 -0 -0 -0 0 0 0 -0 -0 -0 -0 -0 -0 -0 -0 -0 -0 0 -0 -0 0 0 0 -0 -1 -0 -0 nan
nan 0 0 0 -0 -0 -0 0 -0 -0 -0 -0 0 -0 -0 -0 0 -0 -0 -0 -0 -0 -0 -0 0 0 0 0 -0 -1 -1 -0 nan
nan -0 0 0 0 -0 -0 -0 0 -0 -0 -0 -0 -0 -0 -0 0 0 -0 -0 -0 -0 0 0 -0 -0 -0 0 0 -0 -1 -1 nan
nan 0 0 -0 -0 -0 -0 -0 -0 -0 -1 -1 -1 -1 -1 -0 -0 -0 -0 -0 -0 -0 -0 -0 0 0 0 -0 0 0 -0 -1 nan
nan -0 -0 -0 -0 -0 -0 -1 -1 -1 -0 -1 -2 -2 -1 -0 -0 -1 -1 -1 -1 -1 0 -0 -1 -0 -0 -0 -0 0 -0 -0 nan
nan -0 -0 -0 -0 -0 -0 -0 -1 -1 -0 -0 -2 -1 -2 -0 -1 -1 -2 -1 -1 -1 -1 -1 -1 -1 -1 -1 -1 -1 0 -0 nan
nan -0 -0 -0 -0 -1 -0 -0 -0 -1 -1 0 0 -0 -0 -3 -1 -1 -1 -1 -1 -1 -2 -1 -1 -1 -1 -2 -1 -1 -0 -0 nan
nan -1 -1 -0 -0 -1 -0 -0 -0 -0 -1 -1 0 1 0 -0 -2 -1 -2 -2 -1 -1 -1 -2 -1 -1 -1 -1 -1 -1 -1 -1 nan
nan nan nan nan nan nan nan nan nan nan nan nan nan nan nan nan nan nan nan nan nan nan nan nan nan nan nan nan nan nan nan nan nan
Wind_Speed
6 6 4 7 6 5 2 4 9 11 10 9 12 10 11 12 9 4 6 13 11 11 16 14 14 16 16 16 16 16 15 13 12
6 3 5 9 8 7 5 4 4 5 7 7 10 13 13 14 13 10 9 11 16 13 15 15 16 15 16 16 16 16 15 14 13
7 7 6 7 8 8 8 7 7 8 8 9 10 11 12 11 12 12 12 12 18 20 18 17 17 17 16 18 18 18 17 16 15
5 6 6 6 7 6 6 6 6 7 8 9 10 10 12 13 13 13 12 13 14 19 18 20 20 20 20 19 21 20 20 19 19
4 5 4 6 6 6 6 6 7 7 8 9 10 11 15 15 14 10 10 10 12 18 19 20 21 22 23 23 22 24 24 23 22
9 8 8 7 6 6 6 7 8 9 11 11 9 15 17 15 15 16 16 17 18 20 20 21 22 24 26 26 25 26 26 27 26
7 11 9 7 6 6 8 9 10 12 12 12 13 17 17 19 20 21 22 21 23 23 23 24 23 24 26 28 29 29 29 30 30
6 8 8 9 9 10 11 14 15 16 18 19 18 20 20 21 23 24 25 26 28 29 29 29 29 29 29 29 29 31 32 33 34
5 6 9 12 12 13 14 14 15 15 17 19 21 21 23 24 26 27 27 29 29 32 33 32 31 32 33 33 33 33 33 33 36
5 8 9 10 10 12 12 15 14 16 17 19 19 21 23 24 26 28 28 29 31 30 32 34 34 33 31 33 35 35 35 36 36
8 8 6 9 11 12 13 16 16 17 17 20 23 23 22 23 23 26 28 29 30 30 30 33 33 32 32 32 33 37 39 38 38
7 7 7 7 9 12 13 15 16 17 17 17 18 19 21 24 27 27 26 27 28 29 28 27 29 31 33 34 33 35 36 38 41
6 3 5 7 7 9 11 13 14 15 17 19 19 18 23 26 27 28 27 26 27 28 28 30 28 26 29 30 32 31 33 35 37
4 5 5 3 5 8 10 13 16 20 21 22 23 25 27 28 26 23 23 22 23 21 19 20 23 28 32 35 34 32 31 33 35
3 1 3 6 8 12 15 17 19 21 22 25 26 28 26 13 17 20 19 22 27 28 31 31 34 29 27 26 28 29 30 33 38
6 7 9 11 12 15 17 20 22 22 22 26 30 29 17 20 20 16 26 30 32 31 27 26 26 31 31 34 37 36 34 36 33
9 12 14 15 15 17 19 20 22 21 20 21 24 15 27 6 29 26 32 18 19 27 31 33 33 35 39 40 41 38 35 33 31
14 16 17 17 18 19 19 19 19 21 21 19 15 13 9 40 16 32 19 22 34 24 30 34 39 38 34 33 32 32 35 37 34
18 20 20 21 20 19 19 19 19 19 22 23 22 20 23 24 25 18 39 26 34 39 33 36 27 28 34 41 41 39 35 37 37
19 22 22 22 21 20 19 20 20 22 23 24 26 28 27 28 34 38 30 38 32 33 35 28 37 36 33 34 34 37 35 39 37
Wind_Direction
329 324 2 1 360 350 355 234 252 263 261 264 255 274 278 289 296 254 283 283 277 259 276 259 251 248 256 256 263 265 269 270 268
332 329 10 356 3 359 348 341 330 326 321 312 294 291 300 306 300 290 249 268 275 265 258 259 256 262 261 262 262 263 265 265 264
273 303 349 347 356 3 1 351 335 320 318 319 317 313 312 309 303 297 267 253 275 277 271 267 261 261 263 270 268 264 263 263 261
289 318 342 1 9 2 360 354 337 320 318 324 328 323 319 314 309 299 286 264 269 279 282 271 268 264 261 261 274 271 266 264 263
345 321 351 355 353 346 340 336 329 321 316 315 315 326 322 316 309 303 306 299 283 284 286 279 273 269 265 260 256 269 273 269 265
351 332 343 336 330 328 327 324 318 315 315 319 323 323 323 319 317 319 315 299 287 284 289 287 281 275 271 268 262 257 261 268 267
270 287 302 307 312 318 318 315 317 320 322 318 324 304 313 314 314 308 298 295 290 288 289 290 289 284 279 274 270 264 261 257 265
274 301 316 321 323 326 324 333 331 331 327 325 314 312 308 301 291 292 293 293 293 293 294 290 289 288 285 282 277 272 266 262 260
305 314 307 319 327 329 324 322 323 319 313 316 314 308 302 296 294 295 293 291 290 289 293 297 297 292 286 282 281 280 277 272 265
255 267 289 295 307 311 319 311 312 303 300 299 296 295 294 295 298 296 297 296 298 296 293 296 297 297 293 281 280 280 278 276 275
255 281 314 308 313 320 308 303 313 307 302 298 301 301 300 303 295 288 287 286 285 288 288 288 291 291 290 288 279 274 274 278 276
287 305 323 322 299 291 298 298 302 306 303 300 299 302 301 292 293 293 292 294 300 300 300 295 292 291 290 289 286 283 276 272 271
271 269 285 311 324 297 295 294 301 302 306 309 308 304 292 296 299 299 300 298 295 294 297 299 297 296 296 293 295 291 289 283 275
181 237 285 277 293 301 314 321 323 324 320 313 307 303 303 309 305 307 301 295 292 291 291 291 297 302 301 296 290 285 286 288 287
169 80 21 2 343 333 330 328 328 328 324 317 316 316 324 315 322 302 296 295 291 292 292 289 294 289 287 290 293 295 294 296 295
54 23 2 353 343 337 335 331 329 330 330 329 326 332 324 310 296 302 304 301 303 303 301 298 290 290 290 288 291 289 289 289 292
19 3 353 346 339 336 336 336 338 339 344 342 336 332 332 304 308 319 321 319 304 304 297 291 293 294 291 289 292 293 290 292 294
5 355 346 342 340 340 342 340 341 337 340 341 341 333 307 316 325 312 322 298 306 309 300 293 297 300 301 295 295 287 285 291 294
357 350 347 342 342 340 341 341 340 335 333 332 331 320 312 314 316 319 307 318 303 313 307 311 308 293 295 295 292 290 290 292 292
360 352 345 339 338 338 338 338 338 335 329 328 325 323 320 312 309 309 307 306 307 308 313 297 299 303 304 304 294 298 293 291 296
Height
1501 1500 1500 1500 1499 1499 1500 1501 1502 1502 1502 1501 1501 1501 1501 1500 1500 1500 1501 1502 1502 1502 1501 1502 1502 1502 1502 1502 1502 1503 1502 1502 1502
1501 1500 1500 1500 1499 1499 1499 1500 1500 1500 1500 1500 1501 1500 1499 1499 1498 1498 1499 1500 1500 1500 1499 1498 1499 1499 1499 1499 1500 1500 1500 1500 1500
1501 1500 1500 1500 1499 1499 1499 1499 1499 1499 1499 1499 1498 1498 1497 1496 1496 1495 1495 1495 1496 1497 1496 1496 1496 1496 1497 1496 1496 1496 1497 1497 1497
1500 1500 1500 1500 1499 1499 1498 1498 1498 1498 1498 1498 1497 1497 1495 1494 1494 1493 1492 1493 1493 1493 1492 1492 1492 1492 1492 1493 1492 1493 1493 1493 1493
1500 1500 1500 1500 1499 1499 1498 1498 1498 1497 1497 1496 1496 1495 1494 1493 1492 1491 1490 1490 1490 1489 1489 1489 1488 1488 1488 1488 1489 1489 1488 1488 1489
1499 1500 1499 1499 1499 1498 1498 1497 1497 1496 1496 1495 1494 1493 1492 1491 1490 1488 1488 1488 1488 1488 1487 1486 1485 1484 1484 1483 1484 1484 1485 1484 1484
1501 1501 1500 1499 1498 1498 1498 1497 1496 1495 1495 1494 1492 1492 1491 1489 1488 1487 1487 1487 1486 1485 1484 1482 1481 1480 1479 1478 1478 1478 1479 1480 1480
1500 1500 1499 1499 1498 1497 1497 1496 1495 1494 1493 1491 1491 1490 1489 1488 1488 1487 1486 1484 1483 1482 1480 1479 1477 1475 1474 1473 1472 1472 1473 1473 1474
1500 1500 1499 1498 1497 1496 1496 1495 1495 1494 1493 1492 1490 1489 1488 1487 1485 1483 1482 1481 1480 1478 1476 1474 1473 1471 1469 1468 1467 1466 1466 1466 1467
1499 1500 1499 1498 1497 1496 1495 1494 1494 1493 1491 1490 1489 1487 1485 1484 1481 1479 1477 1476 1474 1473 1471 1469 1467 1465 1463 1462 1461 1459 1459 1459 1459
1498 1498 1498 1497 1496 1495 1494 1493 1491 1490 1488 1486 1485 1483 1481 1479 1477 1475 1473 1472 1470 1468 1466 1464 1462 1459 1458 1456 1454 1453 1451 1450 1450
1496 1496 1496 1496 1494 1493 1491 1490 1488 1486 1484 1483 1481 1479 1477 1474 1472 1470 1467 1466 1464 1462 1460 1458 1456 1454 1452 1450 1448 1445 1444 1443 1442
1493 1493 1493 1492 1491 1489 1488 1486 1485 1482 1480 1478 1476 1473 1471 1469 1467 1464 1462 1461 1459 1457 1455 1453 1450 1448 1446 1443 1441 1438 1436 1434 1433
1490 1490 1490 1489 1488 1486 1486 1484 1482 1479 1476 1473 1470 1469 1466 1463 1460 1459 1455 1453 1452 1451 1448 1446 1444 1442 1440 1437 1434 1431 1428 1426 1424
1488 1488 1488 1487 1486 1484 1483 1480 1478 1475 1471 1468 1465 1462 1459 1457 1455 1453 1451 1450 1447 1445 1442 1439 1436 1434 1433 1430 1427 1425 1422 1418 1416
1488 1488 1487 1485 1483 1481 1479 1477 1474 1472 1468 1463 1458 1455 1455 1454 1450 1449 1447 1444 1441 1439 1437 1433 1431 1428 1426 1423 1420 1417 1414 1411 1409
1487 1486 1485 1483 1481 1479 1476 1473 1470 1468 1466 1461 1456 1450 1447 1448 1448 1444 1441 1438 1436 1434 1431 1427 1425 1422 1418 1415 1412 1409 1405 1402 1399
1486 1485 1483 1482 1479 1476 1473 1470 1468 1465 1464 1462 1461 1454 1448 1441 1437 1437 1435 1433 1431 1427 1424 1421 1418 1413 1410 1406 1403 1401 1397 1394 1390
1485 1482 1480 1478 1476 1473 1470 1468 1466 1463 1460 1458 1458 1457 1452 1445 1429 1429 1428 1425 1423 1418 1416 1412 1409 1406 1403 1400 1396 1392 1388 1385 1381
1481 1479 1478 1475 1473 1470 1467 1465 1463 1461 1458 1455 1452 1449 1446 1443 1437 1418 1418 1417 1415 1412 1408 1404 1402 1397 1395 1391 1387 1384 1378 1374 1372